www.pogodaiklimat.ru

Погода и климат >> Архив погоды >> Великобритания >> Силли


ПОГОДА на Силли

  • Прогноз погоды на Силли
  • Монитор погоды на Силли

АРХИВ ПОГОДЫ на Силли

Время (UTC), дата Ветер
(напр.,м/с)
 
Видим.   Явления Облачность Т
(С)
Тd
(С)
f
(%)
Тe
(С)
Тes
(С)
Комфортность P
(гПа)
Po
(гПа)
Тmin
(С)
Tmax
(С)
R
(мм)
R24
(мм)
S
(см)
19 16.08 ЮЗ 10
{14}
5000 м в посл. час дождь н/о +17.3 +17.2 99 +16 +16 1004.5 1000.8
20 16.08 З 8 17 км н/о +16.5 +16.3 99 +15 +15 1004.9 1001.2
21 16.08 З 7 12 км н/о +16.2 +15.8 97 +15 +15 1005.3 1001.6
22 16.08 З 7 13 км н/о +15.9 +15.1 95 +14 +14 1005.3 1001.6
23 16.08 З 8 11 км н/о +16.1 +15.0 93 +14 +14 1005.6 1001.9
00 17.08 З 8 12 км н/о +15.9 +14.3 90 +14 +14 1005.5 1001.8 0.4
01 17.08 З 7 12 км н/о +15.8 +14.0 89 +14 +14 1005.6 1001.9
02 17.08 ЮЗ 7 11 км н/о +16.0 +14.4 90 +14 +14 1005.5 1001.8
03 17.08 З 7 12 км н/о +15.9 +14.1 89 +14 +14 1005.3 1001.7
04 17.08 ЮЗ 8 11 км н/о +16.2 +14.5 90 +15 +15 1005.3 1001.7
05 17.08 З 7 12 км н/о +15.4 +13.9 91 +14 +14 1005.2 1001.5
06 17.08 З 7 15 км н/о +15.7 +14.1 90 +14 +14 1005.7 1002.0 +15.4 0.4
07 17.08 З 7 22 км н/о +16.2 +13.9 86 +15 +15 1006.4 1002.7
08 17.08 З 6 24 км в посл. час дождь н/о +16.2 +13.9 86 +15 +15 1006.6 1002.9
09 17.08 З 6 19 км н/о +17.4 +14.4 83 +17 +17 1006.8 1003.1
10 17.08 З 6 12 км н/о +18.3 +14.8 80 +18 +18 1006.8 1003.2
11 17.08 ЮЗ 7 18 км н/о +19.6 +15.4 77 +21 +21 комфорт 1007.1 1003.5
12 17.08 З 8 16 км н/о +18.9 +13.8 72 +19 +19 1007.5 1003.9 0.0
13 17.08 З 7 29 км н/о +19.0 +13.4 70 +20 +20 1007.3 1003.7
14 17.08 ЮЗ 7 27 км н/о +18.6 +13.9 74 +19 +19 1007.1 1003.5
15 17.08 З 7 16 км в посл. час дождь н/о +16.2 +13.0 81 +15 +15 1006.9 1003.3
16 17.08 ЮЗ 7 21 км н/о +17.3 +13.7 79 +16 +16 1006.6 1002.9
17 17.08 ЮЗ 8 21 км н/о +16.8 +12.8 77 +15 +15 1006.8 1003.1
18 17.08 ЮЗ 6 21 км н/о +16.4 +12.9 80 +15 +15 1005.7 1002.1 +19.7 0.0
19 17.08 ЮЗ 6 22 км н/о +16.3 +12.8 80 +15 +15 1006.0 1002.3
20 17.08 ЮЗ 6 18 км н/о +16.1 +12.9 81 +15 +15 1005.5 1001.8
21 17.08 ЮЗ 4 19 км н/о +16.0 +13.2 83 +15 +15 1005.4 1001.7
22 17.08 ЮЗ 5 30 км н/о +15.5 +12.9 84 +14 +14 1005.0 1001.4
23 17.08 Ю 7 12 км в посл. час дождь н/о +14.2 +12.9 92 +12 +12 1005.0 1001.3
00 18.08 Ю 5 30 км н/о +14.7 +13.3 91 +13 +13 1004.8 1001.1 0.0
01 18.08 ЮЗ 4 28 км н/о +14.4 +13.1 92 +13 +13 1004.8 1001.1
02 18.08 З 7 28 км н/о +14.9 +12.1 83 +13 +13 1004.6 1000.9
03 18.08 З 8 28 км н/о +15.3 +12.2 82 +13 +13 1004.4 1000.8
04 18.08 З 9
{13}
28 км н/о +15.1 +11.9 81 +13 +13 1004.5 1000.8
05 18.08 З 8
{15}
23 км слаб. ливневой дождь н/о +13.4 +11.7 89 +11 +11 1004.9 1001.2
06 18.08 З 9 28 км в посл. час дождь н/о +13.9 +11.5 85 +11 +11 1005.2 1001.5 +13.4 2
07 18.08 З 9 21 км н/о +14.9 +11.9 82 +13 +13 1005.8 1002.1
08 18.08 З 8
{13}
29 км н/о +15.8 +11.7 77 +14 +14 1006.2 1002.5
09 18.08 З 9
{13}
17 км н/о +17.1 +12.1 72 +16 +16 1007.2 1003.5
10 18.08 З 9
{14}
25 км н/о +17.4 +12.6 73 +16 +16 1007.6 1004.0
11 18.08 З 8 24 км н/о +17.8 +13.4 75 +17 +17 1008.2 1004.6
12 18.08 З 9
{13}
18 км н/о +17.9 +12.7 72 +17 +17 1008.6 1004.9
13 18.08 З 9
{13}
20 км в посл. час дождь н/о +18.0 +12.6 71 +17 +17 1009.2 1005.5
14 18.08 З 10-15
{15}
24 км н/о +18.5 +12.6 68 +18 +18 1009.7 1006.1
15 18.08 З 11
{14}
16 км н/о +18.4 +12.9 70 +18 +18 1010.0 1006.4
16 18.08 З 10
{14}
18 км н/о +17.6 +12.5 72 +16 +16 1010.2 1006.5
17 18.08 З 10
{13}
22 км н/о +17.5 +12.0 70 +16 +16 1010.5 1006.8
18 18.08 З 9
{13}
17 км н/о +17.0 +12.1 73 +16 +16 1010.8 1007.1 +19.0 0.2
19 18.08 З 9
{13}
20 км н/о +16.0 +12.0 77 +14 +14 1011.0 1007.3
20 18.08 З 11
{15}
27 км н/о +15.6 +11.4 76 +13 +13 1011.5 1007.8
21 18.08 З 10
{14}
17 км н/о +15.4 +11.6 78 +13 +13 1012.3 1008.6
22 18.08 З 9
{13}
22 км н/о +15.7 +11.9 78 +14 +14 1012.7 1009.0
23 18.08 З 10
{16}
23 км н/о +15.2 +11.9 81 +13 +13 1013.1 1009.4
00 19.08 З 9
{13}
20 км н/о +15.2 +11.3 78 +13 +13 1013.6 1009.9
01 19.08 З 8
{13}
17 км н/о +15.1 +11.4 79 +13 +13 1013.8 1010.1
02 19.08 З 9 18 км н/о +15.1 +11.3 78 +13 +13 1013.9 1010.2
03 19.08 З 7
{14}
14 км н/о +15.3 +11.9 80 +13 +13 1014.0 1010.3
04 19.08 З 8 12 км н/о +15.3 +11.7 79 +13 +13 1014.4 1010.7
05 19.08 З 6 17 км н/о +15.1 +12.1 82 +14 +14 1014.7 1011.0
06 19.08 З 6
{14}
20 км в посл. час дождь н/о +14.8 +12.3 85 +13 +13 1015.1 1011.4 +13.7 0.2
07 19.08 З 7 28 км н/о +15.1 +11.1 77 +13 +13 1015.6 1011.9
08 19.08 З 7 23 км н/о +16.4 +12.3 77 +15 +15 1016.1 1012.4
09 19.08 З 7 17 км н/о +16.0 +12.1 78 +14 +14 1016.7 1013.0
10 19.08 З 5 29 км н/о +17.5 +12.2 71 +17 +17 1017.3 1013.6
11 19.08 З 6 23 км н/о +17.0 +12.2 73 +16 +16 1017.9 1014.2
12 19.08 З 7 22 км в посл. час дождь н/о +17.9 +13.2 74 +17 +17 1018.3 1014.6 0.0
13 19.08 З 8 35 км н/о +18.1 +12.5 70 +17 +17 1018.8 1015.1
14 19.08 З 7 30 км н/о +18.5 +12.4 68 +18 +18 1019.1 1015.4
15 19.08 З 7 19 км н/о +18.4 +12.8 70 +18 +18 1019.2 1015.5
16 19.08 З 8 22 км н/о +17.9 +12.6 71 +17 +17 1019.4 1015.7
17 19.08 З 7 35 км н/о +17.4 +12.0 71 +16 +16 1019.7 1016.0
18 19.08 З 7 35 км н/о +16.6 +11.2 70 +15 +15 1019.9 1016.2 +19.1 0.0
19 19.08 З 6 29 км н/о +15.6 +10.8 73 +14 +14 1020.5 1016.7
20 19.08 З 7 25 км н/о +15.1 +11.0 76 +13 +13 1021.0 1017.2
21 19.08 З 5 22 км н/о +14.9 +11.6 81 +14 +14 1021.5 1017.8
22 19.08 З 6 28 км н/о +14.9 +11.3 79 +13 +13 1021.9 1018.2
23 19.08 З 5 20 км н/о +14.9 +11.7 81 +13 +13 1022.2 1018.5
00 20.08 З 5 30 км н/о +14.8 +11.4 80 +13 +13 1022.4 1018.6
01 20.08 СЗ 5 28 км н/о +14.7 +11.2 80 +13 +13 1022.5 1018.7
02 20.08 З 5 24 км н/о +14.5 +11.4 82 +13 +13 1022.5 1018.7
03 20.08 З 5 29 км н/о +14.3 +10.7 79 +13 +13 1022.8 1019.0
04 20.08 З 4 23 км н/о +14.2 +11.5 84 +13 +13 1023.0 1019.3
05 20.08 СЗ 5 21 км н/о +14.3 +10.9 80 +13 +13 1023.3 1019.5
06 20.08 СЗ 4 20 км н/о +14.4 +11.0 80 +13 +13 1023.8 1020.0 +14.2
07 20.08 З 3 22 км н/о +15.1 +11.8 81 +14 +14 1024.3 1020.6
08 20.08 З 4 21 км н/о +16.3 +11.9 75 +16 +16 1024.8 1021.1
09 20.08 З 5 22 км н/о +17.1 +11.7 71 +17 +17 1025.3 1021.5
10 20.08 З 5 15 км н/о +17.8 +12.5 71 +17 +17 1025.7 1022.0
11 20.08 З 5 21 км н/о +18.5 +12.1 66 +19 +19 1026.0 1022.3
12 20.08 ЮЗ 5 35 км н/о +18.8 +13.0 69 +19 +19 1026.2 1022.5
13 20.08 З 6 30 км н/о +18.8 +12.9 69 +19 +19 1026.4 1022.7
14 20.08 З 5 17 км н/о +18.7 +12.9 69 +19 +19 1026.7 1023.0
15 20.08 З 6 20 км н/о +19.0 +12.6 66 +20 +20 1026.7 1023.0
16 20.08 З 5 16 км н/о +18.8 +13.2 70 +19 +19 1026.5 1022.7
17 20.08 З 5 40 км н/о +17.8 +12.7 72 +17 +17 1026.6 1022.9
18 20.08 З 5 35 км н/о +17.6 +13.0 74 +17 +17 1026.9 1023.1 +19.4
19 20.08 З 4 30 км н/о +16.3 +12.8 80 +16 +16 1027.1 1023.3
20 20.08 З 4 25 км н/о +15.5 +12.7 83 +14 +14 1027.3 1023.6
21 20.08 З 3 26 км н/о +15.2 +13.0 87 +14 +14 1027.5 1023.8
22 20.08 ЮЗ 3 22 км н/о +14.7 +13.1 90 +14 +14 1027.6 1023.8
23 20.08 ЮЗ 3 30 км н/о +14.8 +13.2 90 +14 +14 1027.4 1023.7
00 21.08 ЮЗ 4 35 км н/о +14.8 +13.1 90 +14 +14 1027.4 1023.6
01 21.08 ЮЗ 3 35 км н/о +14.5 +12.7 89 +14 +14 1027.3 1023.5
02 21.08 ЮЗ 4 40 км н/о +14.6 +12.7 88 +13 +13 1027.1 1023.3
03 21.08 ЮЗ 4 50 км н/о +14.9 +13.1 89 +14 +14 1026.9 1023.1
04 21.08 ЮЗ 4 50 км н/о +14.8 +13.0 89 +14 +14 1026.7 1022.9
05 21.08 Ю 5 50 км н/о +15.3 +13.3 88 +14 +14 1026.5 1022.7
06 21.08 Ю 5 40 км в посл. час дождь н/о +15.2 +13.7 91 +14 +14 1026.7 1022.9 +14.4 0.0
07 21.08 Ю 4 35 км н/о +16.4 +14.0 86 +16 +16 1026.9 1023.2
08 21.08 Ю 6 40 км н/о +16.5 +13.7 84 +15 +15 1026.6 1022.8
09 21.08 Ю 6 40 км н/о +16.8 +13.7 82 +16 +16 1026.7 1023.0
10 21.08 ЮЗ 6 30 км н/о +18.2 +12.9 71 +18 +18 1027.0 1023.3
11 21.08 Ю 6 30 км н/о +17.8 +12.8 73 +17 +17 1027.0 1023.3
12 21.08 Ю 5 35 км н/о +18.5 +13.2 71 +19 +19 1026.8 1023.1
13 21.08 ЮЗ 7 28 км н/о +18.9 +13.6 71 +19 +19 1026.7 1022.9
14 21.08 ЮЗ 6 35 км н/о +18.9 +13.0 69 +19 +19 1026.2 1022.5
15 21.08 ЮЗ 7 30 км н/о +18.6 +12.8 69 +19 +19 1026.0 1022.3
16 21.08 ЮЗ 7 40 км н/о +18.1 +12.6 70 +18 +18 1026.0 1022.2
17 21.08 ЮЗ 6 23 км н/о +18.3 +13.0 71 +18 +18 1025.8 1022.1
18 21.08 ЮЗ 6 50 км н/о +17.6 +12.7 73 +17 +17 1025.5 1021.8 +19.3
19 21.08 ЮЗ 6 45 км н/о +16.2 +12.5 79 +15 +15 1025.6 1021.8
20 21.08 ЮЗ 7 45 км н/о +15.8 +12.7 82 +14 +14 1025.6 1021.9
21 21.08 ЮЗ 6 40 км н/о +15.7 +13.3 86 +14 +14 1025.8 1022.1
22 21.08 ЮЗ 6 40 км н/о +15.7 +12.9 83 +14 +14 1025.8 1022.0
23 21.08 ЮЗ 6 40 км н/о +15.8 +13.1 84 +14 +14 1025.6 1021.8
00 22.08 ЮЗ 6 40 км н/о +15.5 +12.8 84 +14 +14 1025.4 1021.6
01 22.08 ЮЗ 6 30 км н/о +15.6 +13.3 86 +14 +14 1025.3 1021.5
02 22.08 ЮЗ 7 35 км н/о +15.5 +13.4 87 +14 +14 1025.1 1021.3
03 22.08 ЮЗ 6 45 км н/о +15.5 +13.5 88 +14 +14 1025.1 1021.4
04 22.08 ЮЗ 5 35 км н/о +15.6 +13.8 89 +14 +14 1024.8 1021.1
05 22.08 ЮЗ 6 40 км н/о +15.5 +13.8 90 +14 +14 1024.5 1020.7
06 22.08 ЮЗ 7 40 км н/о +15.9 +13.9 88 +14 +14 1024.7 1020.9 +15.3
07 22.08 ЮЗ 7 25 км н/о +16.6 +14.4 87 +15 +15 1025.4 1021.6
08 22.08 ЮЗ 7 27 км н/о +17.3 +14.8 85 +16 +16 1025.6 1021.9
09 22.08 ЮЗ 6 26 км н/о +18.2 +15.4 84 +18 +18 1025.8 1022.1
10 22.08 ЮЗ 7 27 км н/о +18.9 +15.6 81 +20 +20 1025.7 1022.0
11 22.08 ЮЗ 7 45 км н/о +19.6 +15.9 79 +21 +21 комфорт 1025.7 1022.0
12 22.08 ЮЗ 6 26 км н/о +19.1 +16.0 82 +20 +20 1026.0 1022.3
13 22.08 ЮЗ 6 35 км н/о +19.7 +15.9 79 +22 +22 комфорт 1025.8 1022.1
14 22.08 ЮЗ 6 21 км н/о +19.7 +16.0 79 +22 +22 комфорт 1025.8 1022.1
15 22.08 ЮЗ 6 21 км н/о +19.3 +16.0 81 +21 +21 комфорт 1025.9 1022.2
16 22.08 ЮЗ 6 26 км н/о +19.0 +15.9 82 +20 +20 1025.6 1021.9
17 22.08 ЮЗ 5 26 км н/о +18.6 +15.6 83 +19 +19 1025.6 1021.9
18 22.08 ЮЗ 5 21 км н/о +18.5 +15.6 83 +19 +19 1025.3 1021.6 +20.0
19 22.08 ЮЗ 3 27 км н/о +17.4 +15.2 87 +17 +17 1025.5 1021.8
20 22.08 ЮЗ 3 16 км н/о +16.2 +14.9 92 +16 +16 1025.7 1021.9
21 22.08 ЮЗ 2 18 км н/о +16.5 +15.3 93 +17 +17 1025.8 1022.1
22 22.08 З 1 40 км н/о +16.6 +14.8 89 +17 +17 1025.7 1022.0
23 22.08 З 1 35 км н/о +16.5 +14.6 89 +17 +17 1025.5 1021.7
00 23.08 ЮВ 1 45 км н/о +16.3 +14.4 89 +18 +18 1025.3 1021.6
01 23.08 В 1 45 км н/о +16.0 +13.9 87 +17 +17 1025.2 1021.5
02 23.08 В 2 40 км н/о +15.5 +13.9 90 +15 +15 1024.9 1021.1
03 23.08 ЮВ 4 35 км н/о +15.8 +14.4 91 +15 +15 1024.5 1020.8
04 23.08 ЮВ 4 30 км н/о +16.0 +14.2 89 +15 +15 1024.3 1020.6
05 23.08 ЮВ 4 50 км н/о +16.3 +14.2 87 +16 +16 1023.9 1020.1
06 23.08 ЮВ 5 45 км н/о +16.1 +14.1 88 +15 +15 1023.5 1019.8 +15.2
07 23.08 ЮВ 6 50 км н/о +16.5 +14.6 89 +15 +15 1023.5 1019.8
08 23.08 В 6 45 км н/о +17.2 +14.5 84 +16 +16 1023.4 1019.7
09 23.08 В 7 28 км н/о +17.9 +15.1 84 +17 +17 1023.1 1019.4
10 23.08 ЮВ 7 24 км н/о +18.1 +15.4 84 +17 +17 1022.9 1019.2
11 23.08 ЮВ 7 26 км н/о +18.2 +15.9 86 +18 +18 1022.4 1018.7
12 23.08 ЮВ 7 19 км н/о +18.5 +16.2 86 +19 +19 1022.1 1018.4
13 23.08 ЮВ 7 29 км н/о +18.9 +16.4 85 +20 +20 1021.8 1018.1
14 23.08 ЮВ 6 14 км н/о +18.9 +16.5 86 +20 +20 1021.4 1017.7
15 23.08 ЮВ 7 20 км н/о +18.9 +16.5 86 +20 +20 1020.9 1017.2
16 23.08 ЮВ 5 11 км н/о +18.9 +16.6 87 +20 +20 1020.7 1017.0
17 23.08 ЮВ 6 14 км н/о +18.5 +16.5 88 +19 +19 1020.3 1016.6

 

Местоположение метеостанции Силли (Великобритания): широта 49.92 долгота -6.30 высота над уровнем моря 30 м.

В архиве по умолчанию представлена погода на Силли за последнюю неделю. Архивные данные за месяц целиком и за предыдущие месяцы, начиная с января 2011 года, Вы можете получить, выбрав интересующий диапазон дат из раскрывающегося списка и нажав кнопку "Ввод!".


*Определитесь, кто Вы:
робот инопланетянин человек

Внимание! Время в таблицах - всемирное. Для получения местного времени необходимо прибавить поправку, которая равна 0 ч.

Смотрите также архив погоды в соседних городах и на ближайших метеорологических станциях:

Погода на Базе Culdrose (Великобритания) (77 км)
Погода в Камборне (Великобритания) (78 км)
Погода в Кардинхеме (Великобритания) (133 км)
Погода в Плимуте (Великобритания) (163 км)
Погода в Уэссане (Франция) (184 км)
Погода в Плудальмезо (Франция) (193 км)
Погода в Бриньоган-Пляже (Франция) (199 км)
Погода на Базе Chivenor (Великобритания) (199 км)
Погода в Иль-де-Ба (Франция) (210 км)
Погода в Бресте (Франция) (213 км)

Пояснения к столбцам:

Ветер - указаны скорость ветра в м/с - средняя за 10 мин, порывы в срок и между сроками (в фигурных скобках) и направление, откуда дует ветер: С - северный, СВ - северо-восточный, В - восточный, ЮВ - юго-восточный, Ю - южный, ЮЗ - юго-западный, З - западный, СЗ - северо-западный.
Видимость - горизонтальная дальность видимости в метрах или километрах. При видимости от 1 до 10 км при отсутствии осадков обычно наблюдается дымка, при ухудшении видимости до 1 км и менее - туман. В сухую погоду видимость может ухудшаться дымом, пылью или мглою.
Явления - указаны атмосферные явления, наблюдавшиеся в срок или в последний час перед сроком; фигурными скобками обозначены явления, наблюдавшиеся между сроками (за 1-3 часа до срока); квадратными скобками обозначены град или гололедные отложения с указанием их диаметра в мм.
Облачность - указаны через наклонную черту общая и нижняя облачность в баллах и высота нижней границы облаков в метрах; квадратными скобками обозначены формы облаков: Ci - перистые, Cs - перисто-слоистые, Cc - перисто-кучевые, Ac - высококучевые, As - высокослоистые, Sc - слоисто-кучевые, Ns - слоисто-дождевые, Cu - кучевые, Cb - кучево-дождевые. Подробнее классификацию облаков см. в Атласе облаков (PDF).
T - Температура воздуха - температура, измеренная на высоте 2 м над землей.
Td - Температура точки росы - температура, при понижении до которой содержащийся в воздухе водяной пар достигнет насыщения.
f - Относительная влажность воздуха - влажноcть воздуха, измеренная на высоте 2 м над землей.
Te - Эффективная температура - температура, которую ощущает одетый по сезону человек в тени. Характеристика душности погоды. При расчете учитывается влияние влажности воздуха и скорости ветра на теплоощущения человека.
Tes - Эффективная температура на солнце - температура, которую ощущает человек, с поправкой на солнечный нагрев. Характеристика знойности погоды. Зависит от высоты солнца над горизонтом, облачности и скорости ветра. Ночью, в пасмурную погоду, а также при ветре 12 м/с и более поправка равна нулю.
P - Атмосферное давление - приведенное к уровню моря атмосферное давление.
Po - Атмосферное давление - измеренное на уровне метеостанции атмосферное давление.
Tmin - Минимальная температура - минимум температуры воздуха на высоте 2 м над землей.
Tmax - Максимальная температура - максимум температуры воздуха на высоте 2 м над землей.
R - Количество осадков - Количество выпавших осадков за период времени, мм. При наведении курсора мыши на число - период времени, за который выпало указанное количество осадков.
R24 - Количество осадков - Количество выпавших осадков за 24 часа, мм.
S - Снежный покров - Высота снежного покрова, см. При наведении курсора мыши на число - состояние снежного покрова и степень покрытия местности в баллах.